Location: Unspecified
(0.0000°N, 0.0000°E)
Time: 16:11:03
(UTC+00:00)

Asterix - Visible Passes

Search period start: 30 September 2023 00:00
Search period end: 10 October 2023 00:00
Orbit: 523 x 1638 km, 34.3° (Epoch: 29 September)

Date Brightness Start Highest point End Pass type
(mag) Time Alt. Az. Time Alt. Az. Time Alt. Az.
30 Sep ? 19:50:32 10° S 19:52:29 13° S 19:52:29 13° S visible
01 Oct ? 18:56:37 10° S 18:58:45 11° SSE 19:00:44 10° SE visible
01 Oct ? 20:47:08 10° SW 20:47:53 13° SW 20:47:53 13° SW visible
02 Oct ? 19:52:03 10° SSW 19:56:30 26° S 19:56:30 26° S visible
03 Oct ? 18:57:03 10° SSW 19:03:04 22° SSE 19:05:11 19° SE visible
03 Oct ? 20:50:09 10° SW 20:52:01 18° SW 20:52:01 18° SW visible
04 Oct ? 18:02:15 10° SSW 18:07:32 17° SSE 18:12:06 10° ESE visible
04 Oct ? 19:54:35 10° SW 20:00:44 49° SSW 20:00:44 49° SSW visible
05 Oct ? 18:59:10 10° SW 19:07:03 42° SSE 19:09:29 32° ESE visible
05 Oct ? 20:53:54 10° WSW 20:56:19 20° W 20:56:19 20° W visible
06 Oct ? 18:03:54 10° SSW 18:11:39 31° SSE 18:17:54 10° E visible
06 Oct ? 19:57:48 10° WSW 20:05:06 66° WNW 20:05:06 66° WNW visible
07 Oct ? 19:01:57 10° SW 19:10:44 78° SE 19:13:54 36° ENE visible
07 Oct ? 20:58:37 10° W 21:00:44 16° WNW 21:00:44 16° WNW visible
08 Oct ? 18:06:19 10° SW 18:15:27 55° SE 18:22:32 10° ENE visible
08 Oct ? 20:01:45 10° WSW 20:09:06 37° NW 20:09:33 37° NNW visible
09 Oct ? 19:05:21 10° WSW 19:14:08 59° NW 19:18:22 25° NNE visible
